Weather History for Frenchville, ME

Change the Weather History Date:

Wednesday, June 26, 2013

  Actual Average Record
Temperature  
Mean Temperature 54 °F 62 °F  
Max Temperature 58 °F 72 °F 91 °F (2003)
Min Temperature 50 °F 52 °F 46 °F (2004)
Degree Days  
Heating Degree Days 11    
Month to date heating degree days 201  
Since 1 July heating degree days 9083  
Cooling Degree Days 0    
Month to date cooling degree days 13  
Year to date cooling degree days 24  
Growing Degree Days 4 (Base 50)    
Moisture  
Dew Point 51 °F    
Average Humidity 89    
Maximum Humidity 100    
Minimum Humidity 77    
Precipitation  
Precipitation 0.29 in 0.16 in 1.57 in (2012)
Month to date precipitation 3.12 3.23  
Year to date precipitation 13.01 13.13  
Snow  
Snow 0.00 in - - ()
Month to date snowfall 0.0  
Since 1 June snowfall 0.0  
Snow Depth 0.00 in    
Sea Level Pressure  
Sea Level Pressure 29.85 in    
Wind  
Wind Speed 8 mph (NE)    
Max Wind Speed 16 mph    
Max Gust Speed 24 mph    
Visibility 9 miles    
Events Rain    
T = Trace of Precipitation, MM = Missing Value Source: NWS Daily Summary

Daily Weather History Graph

Daily Weather History Graph

Search for Another Location

Airport:

Trip Planner

Search our weather history database for the weather conditions in past years. The results will help you decide how hot, cold, wet, or windy it might be!

Date:

Astronomy

Jun. 26, 2013 Rise Set
Actual Time 4:38 AM EDT 8:33 PM EDT
Civil Twilight 3:58 AM EDT 9:13 PM EDT
Nautical Twilight 3:03 AM EDT 10:09 PM EDT
Astronomical Twilight 1:37 AM EDT 11:33 PM EDT
Moon 10:35 PM EDT (6/26) 8:42 AM EDT (6/26)
Length of Visible Light 17h 15m
Length of Day
15h 55m
Waning Gibbous, 85% of the Moon is Illuminated
Jun 26
Waning Gibbous
Jun 30
Last Quarter
Jul 8
New
Jul 15
First Quarter
Jul 22
Full

Hourly Weather History & Observations

Time (EDT) Temp. Dew Point Humidity Pressure Visibility Wind Dir Wind Speed Gust Speed Precip Events Conditions
12:53 AM 57.0 °F 55.0 °F 93% 29.75 in 10.0 mi NNW 12.7 mph - N/A   Overcast
1:48 AM 55.4 °F 53.6 °F 94% 29.77 in 8.0 mi North 8.1 mph - N/A   Overcast
1:53 AM 55.0 °F 54.0 °F 96% 29.76 in 8.0 mi NNW 10.4 mph - N/A   Overcast
2:53 AM 54.0 °F 53.1 °F 97% 29.76 in 3.0 mi NNW 10.4 mph - N/A   Overcast
3:05 AM 53.6 °F 53.6 °F 100% 29.77 in 2.0 mi NNW 11.5 mph - N/A   Overcast
3:38 AM 53.6 °F 51.8 °F 94% 29.77 in 4.0 mi North 8.1 mph - N/A   Overcast
3:53 AM 53.1 °F 52.0 °F 96% 29.76 in 5.0 mi North 11.5 mph - N/A   Overcast
4:53 AM 52.0 °F 51.1 °F 97% 29.78 in 10.0 mi North 9.2 mph - N/A   Overcast
5:25 AM 51.8 °F 51.8 °F 100% 29.81 in 10.0 mi North 6.9 mph - N/A   Overcast
5:53 AM 52.0 °F 50.0 °F 93% 29.81 in 10.0 mi NNW 9.2 mph - N/A   Overcast
6:43 AM 53.6 °F 50.0 °F 88% 29.83 in 10.0 mi North 6.9 mph - N/A   Overcast
6:53 AM 53.1 °F 50.0 °F 89% 29.82 in 10.0 mi NNE 10.4 mph - N/A   Overcast
7:53 AM 53.1 °F 50.0 °F 89% 29.85 in 10.0 mi NNE 9.2 mph - N/A   Overcast
8:53 AM 54.0 °F 48.9 °F 83% 29.87 in 10.0 mi NE 8.1 mph - N/A   Overcast
9:48 AM 55.4 °F 50.0 °F 82% 29.89 in 10.0 mi NE 4.6 mph - N/A   Overcast
9:53 AM 55.0 °F 50.0 °F 83% 29.89 in 10.0 mi NNE 4.6 mph - N/A   Overcast
10:53 AM 55.9 °F 50.0 °F 80% 29.89 in 10.0 mi ENE 6.9 mph - N/A   Overcast
11:01 AM 55.4 °F 50.0 °F 82% 29.89 in 10.0 mi ENE 10.4 mph - N/A   Overcast
11:25 AM 57.2 °F 50.0 °F 77% 29.89 in 10.0 mi NE 8.1 mph - N/A   Overcast
11:53 AM 57.9 °F 51.1 °F 78% 29.88 in 10.0 mi ENE 5.8 mph - N/A   Overcast
12:53 PM 55.9 °F 51.1 °F 84% 29.89 in 10.0 mi East 8.1 mph - N/A   Overcast
1:53 PM 55.9 °F 52.0 °F 87% 29.89 in 10.0 mi East 5.8 mph - N/A   Overcast
2:53 PM 57.9 °F 52.0 °F 81% 29.89 in 10.0 mi ESE 4.6 mph - N/A   Overcast
3:08 PM 57.2 °F 51.8 °F 82% 29.89 in 10.0 mi East 8.1 mph - N/A   Overcast
3:23 PM 57.2 °F 51.8 °F 82% 29.89 in 10.0 mi NE 6.9 mph - N/A   Overcast
3:53 PM 57.0 °F 51.1 °F 81% 29.90 in 10.0 mi ENE 6.9 mph - N/A   Overcast
4:53 PM 57.9 °F 51.1 °F 78% 29.88 in 10.0 mi East 6.9 mph - N/A   Overcast
5:53 PM 57.0 °F 51.1 °F 81% 29.89 in 10.0 mi East 5.8 mph - N/A   Overcast
6:53 PM 55.9 °F 51.1 °F 84% 29.89 in 10.0 mi ENE 5.8 mph - N/A   Overcast
7:53 PM 55.9 °F 51.1 °F 84% 29.89 in 10.0 mi ENE 5.8 mph - 0.00 in Rain Light Rain
8:53 PM 55.0 °F 52.0 °F 89% 29.92 in 10.0 mi East 3.5 mph - 0.00 in Rain Light Rain
9:53 PM 53.1 °F 52.0 °F 96% 29.90 in 4.0 mi East 9.2 mph - 0.16 in Rain Rain
10:27 PM 53.6 °F 51.8 °F 94% 29.89 in 7.0 mi ESE 11.5 mph 17.3 mph 0.11 in Rain Light Rain
10:38 PM 53.6 °F 51.8 °F 94% 29.88 in 8.0 mi ESE 12.7 mph 20.7 mph 0.12 in Rain Light Rain
10:53 PM 53.1 °F 52.0 °F 96% 29.89 in 10.0 mi SE 13.8 mph - 0.12 in Rain Light Rain
11:45 PM 51.8 °F 51.8 °F 100% 29.89 in 10.0 mi SE 8.1 mph - 0.00 in Rain Light Rain
11:53 PM 52.0 °F 51.1 °F 97% 29.88 in 10.0 mi SE 11.5 mph - 0.00 in Rain Light Rain